{"data":{"norad_id":52625,"epoch":"2026-05-25T02:26:05.578080Z","epoch_age_seconds":66556,"freshness":"FRESH","line1":"1 52625U 22052AD  26145.10145345  .00002403  00000+0  16905-3 0  9994","line2":"2 52625  53.2121 286.0914 0001053  82.9545 277.1567 15.08823822222525","mean_motion":15.08823822,"eccentricity":0.0001053,"inclination_deg":53.2121,"raan_deg":286.0914,"arg_perigee_deg":82.9545,"mean_anomaly_deg":277.1567,"bstar":0.00016905,"rev_number":22252,"period_min":95.438577983958,"perigee_km":539.06438106778,"apogee_km":540.52129709189,"semimajor_km":6917.9298390798,"source":"CELESTRAK","updated_at":"2026-05-25T13:38:17.202502Z"}}